Regional Weather Roundup
Issued by NWS

Home | Current Version | Previous Version | Text Only | Print | Product List | Glossary Off
Versions: 1 2 3 4 5 6 7 8 9 10 11 12 13 14 15 16 17 18 19 20 21 22 23 24 25 26 27 28 29 30 31 32 33 34 35 36 37 38 39 40 41 42 43 44 45 46 47 48 49 50

997
ASUS43 KDMX 271906
RWRIA

WEATHER ROUNDUP FOR IOWA
NATIONAL WEATHER SERVICE DES MOINES IA
200 PM CDT THU JUL 27 2017

NOTE: "FAIR" INDICATES FEW OR NO CLOUDS BELOW 12,000 FEET WITH NO
SIGNIFICANT WEATHER AND/OR OBSTRUCTIONS TO VISIBILITY.

* - THESE STATIONS ARE NOT NWS STATIONS...THUS NOT UNDER NWS
QUALITY CONTROL.  THEY ALSO DO NOT REPORT WEATHER SUCH
AS PRECIPITATION OR FOG.

IAZ001>003-012>014-020>022-031>034-043>046-272000-
   NORTHWEST IOWA

CITY           SKY/WX    TMP DP  RH WIND       PRES   REMARKS
CARROLL *      SUNNY     81  63  54 NE9G16    30.04F HX  82
CHEROKEE *     MOSUNNY   82  59  45 NE9       30.07F HX  82
DENISON *      MOSUNNY   81  63  54 NE9       30.07F HX  82
ORANGE CITY *  MOSUNNY   81  61  50 NE6       30.09F HX  81
SHELDON *      MOSUNNY  N/A N/A N/A VRB6      30.08F
SIOUX CITY     MOSUNNY   85  61  44 NE10      30.06F HX  85
SPENCER        SUNNY     85  57  38 NE14      30.08F HX  84
STORM LAKE *     N/A     81  63  54 NE12      30.08F HX  82
$$

IAZ055>058-069>071-079>083-090>094-272000-
   SOUTHWEST IOWA

CITY           SKY/WX    TMP DP  RH WIND       PRES   REMARKS
ATLANTIC *     MOSUNNY   81  64  57 N9G16     30.03F HX  82
AUDUBON *      SUNNY     82  64  54 NE7G17    30.05F HX  84
CLARINDA *     MOSUNNY   82  73  74 N10       30.03S HX  88
COUNCIL BLFS * MOSUNNY   81  66  61 NE12      30.04F HX  83
CRESTON *      MOSUNNY   82  68  61 N12G18    30.02F HX  85
HARLAN  *      MOSUNNY   81  66  61 NE9G17    30.08S HX  83
LAMONI         PTSUNNY   86  69  56 NE10      29.98F HX  90
RED OAK *      SUNNY     82  68  61 N12       30.03S HX  85
SHENANDOAH *   MOSUNNY   82  70  65 N10       30.02S HX  86
$$

IAZ047>049-059>061-072>074-084-272000-
   CENTRAL IOWA

CITY           SKY/WX    TMP DP  RH WIND       PRES   REMARKS
AMES           SUNNY     83  64  52 NE12G18   30.01F HX  84
ANKENY *       MOSUNNY   82  66  57 N9        30.01F HX  85
BOONE *        MOSUNNY   84  61  45 NE10G17   30.02F HX  84
CHARITON *     MOSUNNY   86  70  58 N12       29.98F HX  90
DES MOINES     PTSUNNY   85  66  53 NE12G17   29.99F HX  87
GRINNELL*      PTSUNNY   81  67  63 NE9       30.01F HX  83
KNOXVILLE *    MOSUNNY   84  66  54 N14       29.98S HX  86
MARSHALLTOWN   MOSUNNY   84  64  50 NE14      30.01S HX  85
NEWTON *       PTSUNNY   82  66  57 N12       30.00F HX  85
PELLA *        MOSUNNY   85  65  51 N6        30.00F HX  87
PERRY *          N/A     82  65  56 N8        30.03F HX  83
$$

IAZ004>006-015-016-023>025-035-036-272000-
   NORTH CENTRAL IOWA

CITY           SKY/WX    TMP DP  RH WIND       PRES   REMARKS
ALGONA *       MOSUNNY   81  64  57 N8G15     30.07S HX  82
ESTHERVILLE    MOSUNNY   80  63  55 N6        30.08F HX  81
FORT DODGE *   MOSUNNY   82  63  51 NE9       30.05F HX  83
MASON CITY     MOSUNNY   80  64  58 N9        30.07  HX  82
FOREST CITY *  PTSUNNY   81  61  50 N8        30.07S HX  81
WEBSTER CITY * MOSUNNY   82  61  47 NE10G18   30.02F HX  83
IOWA FALLS *     N/A     82  59  45 N12G17    30.05F HX  82
$$

IAZ007>011-017>019-026>030-037>042-050>054-066-272000-
   NORTHEAST IOWA

CITY           SKY/WX    TMP DP  RH WIND       PRES   REMARKS
CEDAR RAPIDS   MOSUNNY   84  68  58 NE9       29.98S HX  87
CHARLES CITY * MOSUNNY   81  61  50 NE8       30.05S HX  81
DECORAH *      SUNNY     79  61  53 VRB6G16   30.03S HX  80
DUBUQUE        MOSUNNY   81  65  58 NE12      30.00S HX  83
MONTICELLO *   SUNNY     82  66  57 NE6G14    29.99R HX  85
OELWEIN *      SUNNY     81  61  50 NE12      30.03S HX  81
WATERLOO       SUNNY     82  60  47 NE13      30.01S HX  82
$$

IAZ064-065-067-068-078-272000-
   EAST CENTRAL IOWA

CITY           SKY/WX    TMP DP  RH WIND       PRES   REMARKS
DAVENPORT      PTSUNNY   82  70  66 N10       29.98S HX  86
IOWA CITY      PTSUNNY   86  69  56 NE13      29.98F HX  90
MT. PLEASANT * MOSUNNY   81  69  67 N10       29.97F HX  84
MUSCATINE *    MOSUNNY   82  72  69 N7        29.96F HX  87
QUAD CITIES    PTSUNNY   83  70  64 N9        29.94F HX  87
$$

IAZ062-063-075>077-085>089-095>099-272000-
   SOUTHEAST IOWA

CITY           SKY/WX    TMP DP  RH WIND       PRES   REMARKS
BURLINGTON     CLOUDY    79  72  79 NE8       29.96S HX  82
FAIRFIELD *    PTSUNNY   82  68  61 NE14      29.97S HX  85
FORT MADISON * CLOUDY    79  73  83 NE9       29.97S HX  82
KEOKUK *       CLOUDY    81  73  78 N9        29.95S HX  85
OSKALOOSA *      N/A     85  69  57 NE5       29.98F HX  89
CENTERVILLE *    N/A     81  72  74 N3        29.98F HX  84
OTTUMWA        MOSUNNY   88  67  49 N10       29.96F HX  91
WASHINGTON *   MOSUNNY   82  73  74 VRB7      29.98F HX  88
$$

ABBREVIATIONS USED IN REMARKS
   TC - TEMPERATURES IN CELSIUS
  WCI - WIND CHILL INDEX
   HX - HEAT INDEX
  VSB - VISIBILITY
$$





USA.gov is the U.S. government's official web portal to all federal, state and local government web resources and services.